Weather History for Modesto, CA

Change the Weather History Date:

Friday, February 28, 2014

  Actual Average Record
Temperature  
Mean Temperature 58 °F -  
Max Temperature 62 °F 66 °F 77 °F (1992)
Min Temperature 53 °F 45 °F 29 °F (1955)
Degree Days  
Heating Degree Days 7 9  
Month to date heating degree days 290 336  
Since 1 July heating degree days 1698 1768  
Cooling Degree Days 0 0  
Month to date cooling degree days 0 0  
Year to date cooling degree days 0 0  
Growing Degree Days 8 (Base 50)    
Moisture  
Dew Point 50 °F    
Average Humidity 80    
Maximum Humidity 93    
Minimum Humidity 67    
Precipitation  
Precipitation 0.68 in 0.08 in 0.96 in (1983)
Month to date precipitation 2.12 2.38  
Year to date precipitation 2.62 4.99  
Since 1 July precipitation 4.11 9.35  
Snow  
Snow 0.00 in - - ()
Month to date snowfall 0.0  
Since 1 July snowfall 0.0  
Snow Depth -    
Sea Level Pressure  
Sea Level Pressure 29.47 in    
Wind  
Wind Speed 12 mph (SE)    
Max Wind Speed 24 mph    
Max Gust Speed 32 mph    
Visibility 8 miles    
Events Rain    
T = Trace of Precipitation, MM = Missing Value Source: NWS Daily Summary

Daily Weather History Graph

Daily Weather History Graph

Search for Another Location

Airport:

Trip Planner

Search our weather history database for the weather conditions in past years. The results will help you decide how hot, cold, wet, or windy it might be!

Date:

Astronomy

Feb. 28, 2014 Rise Set
Actual Time 6:36 AM PST 5:56 PM PST
Civil Twilight 6:10 AM PST 6:22 PM PST
Nautical Twilight 5:39 AM PST 6:53 PM PST
Astronomical Twilight 5:09 AM PST 7:23 PM PST
Moon 5:54 AM PST (2/28) 5:39 PM PST (2/28)
Length of Visible Light 12h 12m
Length of Day
11h 20m
Waning Crescent, 0% of the Moon is Illuminated
Feb 28
Waning Crescent
Mar 1
New
Mar 8
First Quarter
Mar 16
Full
Mar 23
Last Quarter

Hourly Weather History & Observations

Time (PST) Temp. Dew Point Humidity Pressure Visibility Wind Dir Wind Speed Gust Speed Precip Events Conditions
12:53 AM 59.0 °F 46.9 °F 64% 29.57 in 10.0 mi SE 8.1 mph - 0.00 in Rain Light Rain
1:53 AM 57.9 °F 48.0 °F 70% 29.55 in 8.0 mi SE 12.7 mph - 0.03 in Rain Rain
2:53 AM 55.0 °F 50.0 °F 83% 29.52 in 5.0 mi SE 13.8 mph 20.7 mph 0.10 in Rain Rain
3:53 AM 54.0 °F 51.1 °F 90% 29.48 in 3.0 mi SE 18.4 mph 28.8 mph 0.24 in Rain Heavy Rain
4:53 AM 54.0 °F 51.1 °F 90% 29.45 in 6.0 mi South 9.2 mph 17.3 mph 0.18 in Rain Rain
5:53 AM 54.0 °F 50.0 °F 86% 29.43 in 10.0 mi SE 12.7 mph 23.0 mph 0.08 in Rain Light Rain
6:53 AM 54.0 °F 50.0 °F 86% 29.41 in 10.0 mi SE 13.8 mph 25.3 mph 0.01 in   Scattered Clouds
7:53 AM 55.9 °F 51.1 °F 84% 29.46 in 10.0 mi SE 16.1 mph 25.3 mph N/A   Mostly Cloudy
8:51 AM 59.0 °F 51.8 °F 77% 29.47 in 10.0 mi SE 15.0 mph 23.0 mph N/A   Overcast
8:53 AM 59.0 °F 52.0 °F 78% 29.47 in 10.0 mi SE 13.8 mph 23.0 mph N/A   Overcast
9:53 AM 60.1 °F 52.0 °F 75% 29.47 in 10.0 mi SE 8.1 mph 17.3 mph 0.00 in   Overcast
10:53 AM 61.0 °F 52.0 °F 72% 29.46 in 9.0 mi SE 21.9 mph 32.2 mph 0.00 in Rain Light Rain
11:53 AM 60.1 °F 54.0 °F 80% 29.44 in 10.0 mi SE 11.5 mph 18.4 mph 0.02 in Rain Light Rain
12:53 PM 62.1 °F 52.0 °F 70% 29.41 in 10.0 mi SSE 12.7 mph 23.0 mph 0.00 in Rain Light Rain
1:53 PM 60.1 °F 51.1 °F 72% 29.42 in 10.0 mi South 11.5 mph 18.4 mph 0.01 in Rain Light Rain
2:53 PM 59.0 °F 48.9 °F 69% 29.41 in 10.0 mi South 5.8 mph - 0.01 in   Scattered Clouds
3:53 PM 61.0 °F 48.0 °F 62% 29.43 in 10.0 mi SSE 10.4 mph - N/A   Overcast
4:53 PM 55.9 °F 50.0 °F 80% 29.45 in 7.0 mi SSE 5.8 mph - 0.06 in Rain Light Rain
5:46 PM 55.0 °F 51.1 °F 86% 29.46 in 1.5 mi South 10.4 mph - 0.16 in Rain Rain
5:53 PM 55.0 °F 51.1 °F 86% 29.46 in 1.0 mi South 8.1 mph - 0.22 in Rain Rain
5:59 PM 55.0 °F 52.0 °F 89% 29.46 in 2.0 mi SSE 10.4 mph - 0.00 in Rain Light Rain
6:06 PM 55.0 °F 52.0 °F 89% 29.46 in 8.0 mi SE 10.4 mph 21.9 mph 0.00 in Rain Light Rain
6:19 PM 54.0 °F 51.1 °F 90% 29.46 in 8.0 mi SE 9.2 mph - 0.00 in Rain Light Rain
6:53 PM 54.0 °F 50.0 °F 86% 29.47 in 10.0 mi SE 17.3 mph - 0.02 in   Overcast
7:53 PM 54.0 °F 50.0 °F 86% 29.50 in 10.0 mi SE 9.2 mph - N/A   Overcast
8:53 PM 54.0 °F 48.9 °F 83% 29.52 in 10.0 mi SE 10.4 mph - N/A   Mostly Cloudy
9:53 PM 54.0 °F 48.9 °F 83% 29.54 in 10.0 mi SE 9.2 mph - N/A   Clear
10:53 PM 53.1 °F 48.9 °F 86% 29.55 in 10.0 mi SE 13.8 mph - N/A   Clear
11:53 PM 54.0 °F 48.0 °F 80% 29.55 in 10.0 mi SE 13.8 mph 24.2 mph N/A   Mostly Cloudy